Location: Bosmont
(49.7318°N, 3.8587°E)
Time: 17:36:04
(UTC+00:00)

Cosmos 1844 Rocket - Pass Details

Date: 08 February 2023
Orbit: 825 x 843 km, 71.0° (Epoch: 25 March)

Event Time Altitude Azimuth Distance (km) Brightness Sun altitude
Rises 17:57:31 0° 326° (NW) 3,375 6.2 -11.1°
Reaches altitude 10° 18:00:06 10° 318° (NW) 2,437 5.6 -11.5°
Maximum altitude 18:05:11 37° 253° (WSW) 1,260 4.3 -12.3°
Drops below altitude 10° 18:10:14 10° 187° (S) 2,423 5.3 -13.2°
Sets 18:12:48 0° 179° (S) 3,354 5.9 -13.6°
